Vancouver, WA
on Saturday, November 10, 2012

Saturday
Previous Day Next Day
Daily Summary
 ActualAverageRecord
Temperature
Mean Temperature °F 48°F  
Max Temperature 46°F 55°F 70°F (1907)
Min Temperature 35°F 41°F 27°F (1920)
Degree Days
Heating Degree Days 24    
Month to date heating degree days 132  
Since 1 July heating degree days 451  
Cooling Degree Days 0    
Month to date cooling degree days 0  
Year to date cooling degree days 398  
Moisture
Dew Point 35°F   
Average Humidity 76    
Maximum Humidity 92    
Minimum Humidity 60    
Precipitation
Precipitation 0.00 in 0.19 in 1.37 in (1910)
Month to date precipitation 0.50 1.77  
Year to date precipitation 31.66 28.23  
Snow
Snow 0.00 in in in ()
Month to date snowfall 0.0  
Snow Depth 0.00 in   
Wind
Wind Speed 1 mph   
Max Wind Speed 8 mph   
Max Gust Speed 9 mph   
Visibility 8 miles   
Events     

Key: T is trace of precipitation, MM is missing value
Source: NWS Daily Summary
Time(PST)TemperatureDew PointHumidity Pressure Visibility Wind DirectionWind SpeedGust SpeedPrecipitationEvents Conditions
12:11 AM 37.4°F 35.6°F 93% 29.95 in 6.0 miles NW 5.8 mph - N/A   Mostly Cloudy
12:19 AM 37.4°F 35.6°F 93% 29.95 in 5.0 miles NW 4.6 mph - N/A   Mostly Cloudy
12:53 AM 37.9°F 36.0°F 93% 29.96 in 7.0 miles WNW 3.5 mph - N/A   Overcast
1:53 AM 37.9°F 36.0°F 93% 29.98 in 6.0 miles Calm Calm - N/A   Overcast
2:53 AM 37.0°F 35.1°F 93% 29.99 in 6.0 miles Calm Calm - N/A   Overcast
4:28 AM 37.4°F 35.6°F 93% 30.01 in 7.0 miles WNW 4.6 mph - N/A   Overcast
4:53 AM 37.9°F 35.1°F 89% 30.02 in 7.0 miles Calm Calm - N/A   Overcast
5:06 AM 37.4°F 35.6°F 93% 30.02 in 7.0 miles Calm Calm - N/A   Overcast
5:53 AM 37.9°F 35.1°F 89% 30.04 in 7.0 miles Calm Calm - N/A   Overcast
6:14 AM 37.4°F 35.6°F 93% 30.04 in 6.0 miles Calm Calm - N/A   Overcast
6:36 AM 35.6°F 33.8°F 93% 30.04 in 6.0 miles Calm Calm - N/A   Overcast
6:53 AM 35.1°F 33.1°F 92% 30.05 in 5.0 miles Calm Calm - N/A   Mostly Cloudy
7:34 AM 37.4°F 35.6°F 93% 30.07 in 5.0 miles Calm Calm - N/A   Overcast
7:53 AM 39.0°F 36.0°F 89% 30.08 in 5.0 miles Calm Calm - N/A   Overcast
8:09 AM 39.2°F 35.6°F 87% 30.07 in 6.0 miles Calm Calm - N/A   Overcast
8:53 AM 39.0°F 35.1°F 86% 30.09 in 6.0 miles WNW 3.5 mph - N/A   Overcast
9:00 AM 39.2°F 35.6°F 87% 30.09 in 6.0 miles WNW 3.5 mph - N/A   Overcast
9:09 AM 39.2°F 35.6°F 87% 30.09 in 6.0 miles Calm Calm - N/A   Overcast
9:35 AM 41.0°F 35.6°F 81% 30.10 in 7.0 miles Calm Calm - N/A   Overcast
9:53 AM 41.0°F 35.1°F 79% 30.10 in 8.0 miles Calm Calm - N/A   Overcast
10:23 AM 41.0°F 35.6°F 81% 30.11 in 7.0 miles Calm Calm - N/A   Overcast
10:46 AM 41.0°F 35.6°F 81% 30.12 in 9.0 miles Calm Calm - N/A   Overcast
10:53 AM 41.0°F 35.1°F 79% 30.12 in 9.0 miles Calm Calm - N/A   Overcast
11:53 AM 42.1°F 33.1°F 70% 30.13 in 10.0 miles WSW 3.5 mph - N/A   Overcast
12:53 PM 43.0°F 33.1°F 68% 30.15 in 10.0 miles Calm Calm - N/A   Overcast
1:41 PM 44.6°F 33.8°F 66% 30.15 in 10.0 miles Calm Calm - N/A   Overcast
1:53 PM 44.1°F 34.0°F 68% 30.15 in 10.0 miles Calm Calm - N/A   Overcast
2:53 PM 45.0°F 34.0°F 65% 30.14 in 10.0 miles Calm Calm - N/A   Mostly Cloudy
3:53 PM 46.0°F 34.0°F 63% 30.16 in 10.0 miles Calm Calm - N/A   Overcast
4:53 PM 44.1°F 34.0°F 68% 30.16 in 10.0 miles Calm Calm - N/A   Overcast
5:53 PM 44.1°F 35.1°F 71% 30.18 in 10.0 miles Calm Calm - N/A   Overcast
6:27 PM 39.2°F 33.8°F 81% 30.18 in 10.0 miles Calm Calm - N/A   Scattered Clouds
6:53 PM 35.1°F 32.0°F 89% 30.19 in 10.0 miles Calm Calm - N/A   Scattered Clouds
7:02 PM 37.4°F 33.8°F 87% 30.19 in 10.0 miles Calm Calm - N/A   Mostly Cloudy
7:25 PM 37.4°F 33.8°F 87% 30.19 in 10.0 miles Calm Calm - N/A   Mostly Cloudy
8:53 PM 39.0°F 35.1°F 86% 30.21 in 10.0 miles Calm Calm - N/A   Overcast
9:53 PM 37.0°F 33.1°F 86% 30.22 in 7.0 miles Calm Calm - N/A   Partly Cloudy
10:23 PM 37.4°F 33.8°F 87% 30.23 in 7.0 miles Calm Calm - N/A   Overcast
10:53 PM 41.0°F 36.0°F 82% 30.23 in 8.0 miles ESE 3.5 mph - N/A   Overcast
11:10 PM 39.2°F 35.6°F 87% 30.23 in 7.0 miles ESE 3.5 mph - N/A   Mostly Cloudy
11:25 PM 39.2°F 35.6°F 87% 30.23 in 8.0 miles SE 3.5 mph - N/A   Mostly Cloudy
11:53 PM 41.0°F 36.0°F 82% 30.23 in 8.0 miles Calm Calm - N/A   Overcast
Moon Phase
Nov. 10 Nov. 13 Nov. 20 Nov. 28 Dec. 06
Sunrise:07:03 AM (PST) Moon Rise:03:05 AM (PST)11/10
Sunset:04:44 PM (PST) Moon Set:02:43 PM (PST)11/10

Copyright © 2014 The Weather Underground, Inc.